Weather History for Hanford, CA

Change the Weather History Date:

Thursday, December 20, 2012

  Actual Average Record
Temperature  
Mean Temperature 40 °F 44 °F  
Max Temperature 57 °F 53 °F 68 °F (2005)
Min Temperature 23 °F 35 °F 23 °F (2012)
Degree Days  
Heating Degree Days 25    
Month to date heating degree days 317  
Since 1 July heating degree days 716  
Cooling Degree Days 0    
Month to date cooling degree days 0  
Year to date cooling degree days 2018  
Moisture  
Dew Point 29 °F    
Average Humidity 67    
Maximum Humidity 100    
Minimum Humidity 33    
Precipitation  
Precipitation 0.00 in 0.07 in 0.73 in (2010)
Month to date precipitation 0.73 0.75  
Year to date precipitation 5.79 9.22  
Since 1 July precipitation 1.21 2.46  
Snow  
Snow 0.00 in - - ()
Month to date snowfall 0.0  
Since 1 July snowfall 0.0  
Snow Depth 0.00 in    
Sea Level Pressure  
Sea Level Pressure 30.21 in    
Wind  
Wind Speed 3 mph (SE)    
Max Wind Speed 9 mph    
Max Gust Speed 12 mph    
Visibility 8 miles    
Events      
T = Trace of Precipitation, MM = Missing Value Source: NWS Daily Summary

Daily Weather History Graph

Daily Weather History Graph

Search for Another Location

Airport:

Trip Planner

Search our weather history database for the weather conditions in past years. The results will help you decide how hot, cold, wet, or windy it might be!

Date:

Astronomy

Dec. 20, 2012 Rise Set
Actual Time 7:05 AM PST 4:47 PM PST
Civil Twilight 6:37 AM PST 5:15 PM PST
Nautical Twilight 6:04 AM PST 5:48 PM PST
Astronomical Twilight 5:33 AM PST 6:19 PM PST
Moon 11:59 AM PST (12/20) 12:06 AM PST (12/20)
Length of Visible Light 10h 38m
Length of Day
9h 41m
First Quarter, 56% of the Moon is Illuminated
Dec 20
First Quarter
Dec 28
Full
Jan 4
Last Quarter
Jan 11
New
Jan 18
First Quarter

Hourly Weather History & Observations

Time (PST) Temp. Windchill Dew Point Humidity Pressure Visibility Wind Dir Wind Speed Gust Speed Precip Events Conditions
12:01 AM 28.4 °F 24.6 °F 26.6 °F 93% 30.30 in 6.0 mi SE 3.5 mph - N/A   Clear
12:53 AM 28.0 °F 24.2 °F 26.1 °F 92% 30.30 in 7.0 mi ESE 3.5 mph - N/A   Clear
1:53 AM 28.0 °F 24.2 °F 26.1 °F 92% 30.30 in 6.0 mi East 3.5 mph - N/A   Clear
2:53 AM 28.9 °F 25.2 °F 26.1 °F 89% 30.27 in 7.0 mi East 3.5 mph - N/A   Clear
3:53 AM 27.0 °F 23.0 °F 24.1 °F 89% 30.25 in 5.0 mi ESE 3.5 mph - N/A   Clear
4:53 AM 27.0 °F - 25.0 °F 92% 30.26 in 6.0 mi Calm Calm - N/A   Clear
5:53 AM 25.0 °F - 25.0 °F 100% 30.27 in 4.0 mi Calm Calm - N/A   Clear
6:53 AM 23.0 °F - 21.0 °F 92% 30.27 in 4.0 mi Calm Calm - N/A   Clear
7:17 AM 26.6 °F - 24.8 °F 93% 30.26 in 2.5 mi Calm Calm - N/A   Clear
7:30 AM 28.4 °F 23.3 °F 26.6 °F 93% 30.26 in 4.0 mi ESE 4.6 mph - N/A   Clear
7:53 AM 28.9 °F - 28.0 °F 96% 30.28 in 4.0 mi Calm Calm - N/A   Clear
8:53 AM 36.0 °F - 32.0 °F 86% 30.28 in 7.0 mi Calm Calm - N/A   Clear
9:53 AM 43.0 °F 40.3 °F 35.1 °F 74% 30.27 in 10.0 mi ESE 4.6 mph - N/A   Clear
10:53 AM 48.0 °F - 35.1 °F 61% 30.25 in 10.0 mi ESE 6.9 mph - N/A   Clear
11:53 AM 52.0 °F - 32.0 °F 47% 30.22 in 10.0 mi South 5.8 mph - N/A   Clear
12:53 PM 54.0 °F - 32.0 °F 43% 30.17 in 10.0 mi South 4.6 mph - N/A   Clear
1:53 PM 55.9 °F - 28.9 °F 36% 30.14 in 10.0 mi SSE 3.5 mph - N/A   Clear
2:53 PM 57.0 °F - 28.9 °F 34% 30.13 in 10.0 mi South 5.8 mph - N/A   Clear
3:53 PM 55.9 °F - 28.0 °F 34% 30.12 in 10.0 mi South 4.6 mph - N/A   Clear
4:53 PM 48.0 °F - 30.9 °F 52% 30.12 in 10.0 mi Calm Calm - N/A   Clear
5:53 PM 46.0 °F 43.9 °F 33.1 °F 61% 30.12 in 10.0 mi ESE 4.6 mph - N/A   Clear
6:53 PM 46.9 °F - 30.0 °F 52% 30.12 in 10.0 mi East 5.8 mph - N/A   Clear
7:53 PM 41.0 °F 38.0 °F 30.9 °F 67% 30.12 in 10.0 mi ENE 4.6 mph - N/A   Clear
8:53 PM 36.0 °F - 28.9 °F 76% 30.12 in 10.0 mi Calm Calm - N/A   Clear
9:53 PM 33.1 °F - 26.1 °F 75% 30.13 in 10.0 mi Calm Calm - N/A   Clear
10:53 PM 35.1 °F - 30.9 °F 85% 30.12 in 9.0 mi Calm Calm - N/A   Clear
11:53 PM 34.0 °F 31.0 °F 30.0 °F 85% 30.12 in 9.0 mi SE 3.5 mph - N/A   Clear